TimeMST,TemperatureF,Dew PointF,Humidity,Sea Level PressureIn,VisibilityMPH,Wind Direction,Wind SpeedMPH,Gust SpeedMPH,PrecipitationIn,Events,Conditions,WindDirDegrees,DateUTC
12:35 AM,44.6,42.8,93,30.15,6.0,West,5.8,-,0.03,Rain,Light Rain,270,2013-01-26 07:35:00
12:43 AM,44.6,42.8,93,30.15,7.0,West,6.9,-,0.03,Rain,Light Rain,280,2013-01-26 07:43:00
12:56 AM,44.1,42.1,93,30.08,4.0,West,3.5,-,0.06,Rain,Light Rain,280,2013-01-26 07:56:00
1:12 AM,44.6,42.8,93,30.13,5.0,Calm,Calm,-,0.02,Rain,Light Rain,0,2013-01-26 08:12:00
1:50 AM,44.6,42.8,93,30.11,8.0,Calm,Calm,-,0.03,Rain,Light Rain,0,2013-01-26 08:50:00
1:56 AM,44.1,42.1,93,30.02,9.0,Calm,Calm,-,0.03,,Overcast,0,2013-01-26 08:56:00
2:22 AM,44.6,42.8,93,30.10,6.0,Calm,Calm,-,0.00,Rain,Light Rain,0,2013-01-26 09:22:00
2:56 AM,44.1,42.1,93,30.00,4.0,Calm,Calm,-,0.05,Rain,Light Rain,0,2013-01-26 09:56:00
3:24 AM,44.6,42.8,93,30.08,4.0,West,8.1,-,0.02,Rain,Rain,270,2013-01-26 10:24:00
3:56 AM,44.1,42.1,93,29.97,7.0,NW,4.6,-,0.06,Rain,Light Rain,310,2013-01-26 10:56:00
4:16 AM,44.6,42.8,93,30.05,6.0,Calm,Calm,-,0.02,Rain,Light Rain,0,2013-01-26 11:16:00
4:54 AM,42.8,42.8,100,30.02,10.0,Calm,Calm,-,0.02,,Overcast,0,2013-01-26 11:54:00
4:56 AM,43.0,42.1,97,29.94,10.0,Calm,Calm,-,0.02,,Overcast,0,2013-01-26 11:56:00
5:56 AM,43.0,41.0,93,29.92,6.0,Calm,Calm,-,0.01,Rain,Light Rain,0,2013-01-26 12:56:00
6:41 AM,42.8,41.0,93,30.00,9.0,Calm,Calm,-,0.00,,Overcast,0,2013-01-26 13:41:00
6:56 AM,43.0,41.0,93,29.93,10.0,WSW,4.6,-,0.00,,Overcast,240,2013-01-26 13:56:00
7:56 AM,43.0,42.1,97,29.92,7.0,Calm,Calm,-,0.01,Rain,Light Rain,0,2013-01-26 14:56:00
8:56 AM,43.0,42.1,97,29.92,4.0,Calm,Calm,-,0.04,Rain,Light Rain,0,2013-01-26 15:56:00
9:56 AM,44.1,42.1,93,29.92,4.0,Calm,Calm,-,0.07,Rain,Light Rain,0,2013-01-26 16:56:00
10:56 AM,45.0,43.0,93,29.92,6.0,Calm,Calm,-,0.07,Rain,Light Rain,0,2013-01-26 17:56:00
11:44 AM,46.4,42.8,87,29.95,7.0,Calm,Calm,-,0.03,Rain,Light Rain,0,2013-01-26 18:44:00
11:56 AM,46.0,44.1,93,29.88,7.0,Calm,Calm,-,0.04,Rain,Light Rain,0,2013-01-26 18:56:00
12:56 PM,48.0,46.0,93,29.84,10.0,Calm,Calm,-,0.00,,Overcast,0,2013-01-26 19:56:00
1:05 PM,48.2,46.4,93,29.89,9.0,Calm,Calm,-,N/A,,Overcast,0,2013-01-26 20:05:00
1:56 PM,51.1,46.9,86,29.80,10.0,Calm,Calm,-,0.00,,Overcast,0,2013-01-26 20:56:00
2:27 PM,50.0,48.2,94,29.86,10.0,NW,11.5,-,0.01,,Overcast,310,2013-01-26 21:27:00
2:56 PM,51.1,48.0,89,29.80,10.0,WSW,4.6,-,0.01,,Overcast,250,2013-01-26 21:56:00
3:56 PM,51.1,45.0,80,29.81,10.0,WSW,6.9,-,0.00,Rain,Light Rain,240,2013-01-26 22:56:00
4:56 PM,50.0,42.1,74,29.83,10.0,SW,17.3,20.7,0.04,Rain,Light Rain,220,2013-01-26 23:56:00
5:56 PM,48.0,42.1,80,29.84,10.0,SSW,4.6,-,0.01,,Mostly Cloudy,210,2013-01-27 00:56:00
6:56 PM,48.0,41.0,77,29.87,10.0,SW,12.7,-,N/A,,Overcast,220,2013-01-27 01:56:00
7:56 PM,46.9,41.0,80,29.88,10.0,SSW,4.6,-,N/A,,Overcast,200,2013-01-27 02:56:00
8:56 PM,48.0,39.9,74,29.88,10.0,SW,12.7,-,N/A,,Scattered Clouds,220,2013-01-27 03:56:00
9:56 PM,48.0,39.9,74,29.89,10.0,SSW,11.5,-,N/A,,Mostly Cloudy,210,2013-01-27 04:56:00
10:56 PM,46.9,39.0,74,29.90,10.0,SSW,15.0,-,N/A,,Overcast,210,2013-01-27 05:56:00
11:56 PM,46.0,39.0,76,29.91,10.0,Calm,Calm,-,N/A,,Clear,0,2013-01-27 06:56:00